Vertical_Velocity
45 -3 4 0 17 -4 -2 -5 0 -3 -4 -1 3 0 0 -0 -2 -0 -0 1 -1 -1 0 -1 0 -2 -2 -2 1 1 1 2 -0 1 -2 -1 -0 -2 -1 -1 -3 -1 -3
-4 93 -0 6 -4 4 0 7 4 -3 -1 -3 -3 0 1 1 -1 1 -0 -1 -1 0 -1 -2 -1 -4 -1 2 -1 -1 -2 -1 -3 1 -1 -1 -2 -3 -2 -4 -2 -3 -2
-7 162 14 2 -0 1 -0 5 3 1 2 3 -0 -1 1 -1 2 2 -0 -2 0 1 -3 1 -2 -4 -1 -2 -1 -1 1 -4 1 -4 -0 -1 -0 -1 -1 -1 -1 -0 1
-1 -20 109 -9 -11 -2 5 5 -4 -4 -1 2 3 -1 1 -1 2 1 2 -1 1 1 0 -2 1 -1 -3 -2 1 1 -2 1 -3 1 -2 1 -0 -0 -1 -2 -2 -3 -3
13 21 13 -5 3 50 -5 3 -3 -5 3 -5 1 3 1 1 4 -0 2 -0 -1 2 -0 -3 0 -1 0 -3 1 3 1 1 1 2 1 -1 -1 -2 -1 -1 -2 -2 -1
26 23 35 7 -0 -3 10 -7 -2 -0 -3 7 -3 -2 1 2 2 1 0 -0 1 1 3 2 -1 -1 -1 -2 2 -0 1 -0 -1 -1 -3 -1 -0 -0 -2 0 -2 -2 -2
-2 12 47 32 13 -0 -1 -5 14 2 2 -1 -1 -4 -3 5 1 1 -0 0 2 3 -1 1 -2 2 2 -4 2 5 -5 -2 -2 -1 -1 -0 -0 1 -1 -2 -2 -1 -3
-0 -3 2 91 -13 -1 -4 22 3 6 3 1 -6 -2 -2 -2 0 1 -0 1 0 -2 2 1 -4 -2 2 -0 1 2 -3 -3 -1 -0 -0 0 -1 -0 -1 -1 -1 -1 -2
-5 -11 -1 62 -8 14 -1 20 10 -4 5 0 -4 -4 0 -0 -2 2 2 -1 -1 3 -0 -0 -1 2 1 -0 -2 -3 3 -2 1 -1 -3 1 -1 0 -2 -4 -1 -2 -3
-0 9 -43 66 5 -2 8 19 -2 4 2 -3 -5 2 -1 -1 -2 1 5 0 0 1 1 1 -3 -1 2 -2 1 0 1 3 0 2 0 0 -4 -2 -0 -1 -3 -3 -3
-13 1 21 34 14 1 7 21 10 -4 -3 0 2 -1 5 -1 1 2 0 2 -0 -0 0 2 -3 0 0 0 -1 2 -6 -0 -0 1 -1 -2 -0 -1 -5 -2 -2 1 0
-1 8 2 15 17 17 47 26 12 20 2 6 2 -1 -1 3 -1 5 1 5 3 2 3 -1 -2 0 -1 -1 0 4 -3 2 -1 0 -2 -1 -1 -3 0 -2 1 0 -3
1 -2 -4 1 1 7 -3 -8 2 -8 -1 1 -3 8 2 7 4 -4 3 -3 3 1 1 -0 0 0 1 2 2 3 -3 -0 -0 -2 -3 -3 0 -2 1 -2 -1 -4 -1
-0 -1 3 -4 -3 -1 -6 -5 -1 -1 -1 -1 -5 3 -3 -4 -1 -3 0 -0 2 4 -0 -0 -2 1 1 1 2 -0 -1 -3 -1 -3 2 0 3 1 -4 -2 -1 -6 -4
5 3 -1 -4 1 -1 -8 -3 6 11 2 -2 -5 -1 1 1 1 2 -2 1 2 -0 -1 1 0 3 1 2 2 -3 3 -4 0 -6 -2 -3 0 -0 1 -3 -0 -1 -4
1 2 0 1 -0 2 -3 -2 -1 8 -5 0 -4 1 -1 1 -1 3 -1 2 1 0 2 2 1 2 1 -2 -1 -5 -4 5 1 -1 1 2 -1 -4 1 -2 -0 1 2
-1 -2 -8 4 -1 -8 -2 -4 -3 -2 -2 1 2 1 -1 -0 4 -0 6 1 -0 1 1 3 2 1 1 0 0 -1 -1 -9 12 4 3 2 -1 -6 -4 -2 -7 -4 1
-5 -12 -4 -5 -2 -5 -6 -6 -3 -2 3 2 1 2 -3 2 -1 -0 -3 -6 -3 0 1 -0 -0 0 3 -1 -1 -2 -0 -4 -10 2 1 2 0 -0 -4 -2 -2 -8 -4
3 -1 3 -7 -9 -8 -2 -5 2 1 -0 -2 -2 -4 -4 -2 -1 -2 -3 -1 -0 1 0 0 -2 -1 -2 3 1 -0 -2 1 1 -4 -13 1 -1 5 3 -5 -3 -7 -6
-4 -6 -4 -4 3 1 -2 -0 2 3 4 -9 -6 -2 -5 -0 -4 -7 1 2 3 2 -1 -2 -1 -0 -3 -1 -1 2 -7 -3 -0 6 0 -16 -9 -8 -2 -0 7 -2 -5
-0 -5 4 0 -5 -1 1 -2 -2 -5 -0 -6 -1 -0 4 -2 -1 -0 -1 0 3 0 -1 2 -3 -3 0 -2 -7 7 1 2 -3 -3 4 7 5 -9 -7 -7 -6 -8 -1
3 6 -1 -0 -5 -2 2 -0 -2 6 5 -2 -3 -2 -4 -4 4 -2 -0 -1 0 -0 0 -2 -1 -1 -0 2 -2 -1 -4 -1 0 -1 4 7 3 0 -2 -4 -4 -3 -8
0 0 5 2 1 3 1 4 6 2 -3 -4 -6 -2 0 -2 2 4 0 -0 0 0 6 4 1 -3 -1 -1 -4 -8 -3 -1 -4 1 -6 -3 0 4 -2 -2 7 8 2
1 1 1 1 3 1 -1 -4 -2 -5 -3 -6 -2 -0 2 -2 0 -0 3 5 1 -4 -3 -3 -1 -3 -1 0 2 29 -1 -0 -6 -7 -3 -7 -3 4 3 0 -1 1 1
1 0 -4 -3 -2 -4 -3 -3 -4 -3 -4 -4 -8 -7 -5 -3 -0 -2 3 -2 1 -4 -4 1 0 -0 -4 -3 6 -2 2 -3 -6 -9 5 -5 -2 1 -0 -1 3 3 2
-1 -2 -4 -3 -3 -4 -6 -8 -13 -7 -2 4 4 -1 -7 -7 -1 10 -5 4 1 -2 -2 -1 -1 7 -1 -4 -4 -4 -1 3 -3 -7 -3 6 -5 -5 -2 -5 -4 -2 0
Height
5790 5808 5812 5819 5822 5830 5834 5840 5842 5842 5842 5844 5845 5847 5848 5849 5849 5849 5849 5850 5850 5850 5850 5850 5849 5850 5849 5850 5850 5850 5849 5849 5847 5847 5847 5846 5845 5845 5845 5845 5845 5845 5845
5804 5798 5803 5812 5819 5826 5830 5832 5833 5836 5838 5840 5841 5842 5843 5844 5845 5845 5846 5846 5846 5845 5846 5846 5845 5846 5846 5847 5847 5848 5849 5847 5846 5845 5844 5844 5844 5843 5843 5844 5844 5844 5844
5804 5783 5796 5804 5813 5821 5824 5824 5827 5830 5832 5834 5836 5837 5839 5840 5841 5841 5841 5842 5842 5841 5841 5841 5842 5843 5843 5844 5845 5847 5846 5844 5845 5844 5843 5843 5843 5842 5842 5842 5841 5840 5841
5798 5794 5789 5804 5811 5816 5818 5820 5824 5826 5828 5829 5832 5833 5835 5836 5837 5836 5837 5837 5837 5839 5839 5838 5839 5840 5841 5841 5842 5844 5844 5845 5842 5842 5841 5841 5841 5841 5840 5839 5839 5838 5838
5793 5793 5801 5807 5804 5808 5811 5816 5818 5822 5824 5827 5826 5828 5830 5832 5832 5833 5833 5833 5834 5834 5835 5836 5836 5836 5837 5838 5840 5841 5841 5842 5842 5841 5840 5841 5840 5839 5838 5837 5837 5836 5835
5788 5790 5790 5796 5800 5802 5807 5810 5813 5816 5819 5821 5824 5826 5826 5827 5829 5828 5830 5830 5831 5830 5831 5833 5832 5834 5834 5835 5837 5838 5837 5839 5839 5838 5838 5838 5837 5836 5835 5833 5833 5832 5832
5781 5784 5788 5783 5793 5796 5801 5803 5803 5810 5813 5817 5820 5823 5823 5822 5823 5824 5824 5826 5826 5827 5828 5828 5829 5830 5831 5832 5834 5836 5833 5834 5835 5836 5836 5835 5833 5832 5831 5830 5830 5829 5829
5774 5777 5783 5768 5786 5790 5796 5792 5795 5804 5809 5814 5816 5817 5818 5818 5818 5820 5822 5823 5822 5823 5824 5825 5825 5827 5828 5829 5830 5833 5832 5833 5835 5834 5833 5833 5831 5829 5828 5828 5827 5827 5826
5772 5770 5771 5756 5773 5784 5787 5790 5794 5800 5805 5808 5810 5812 5813 5813 5814 5816 5818 5818 5818 5819 5821 5821 5821 5823 5824 5826 5827 5831 5832 5831 5831 5832 5831 5830 5828 5827 5827 5826 5823 5823 5822
5769 5768 5764 5764 5772 5781 5782 5785 5790 5793 5799 5802 5806 5808 5809 5810 5812 5810 5811 5813 5815 5815 5817 5817 5818 5820 5822 5824 5826 5829 5828 5830 5829 5828 5828 5828 5827 5826 5824 5823 5822 5820 5817
5766 5765 5763 5764 5773 5777 5778 5778 5786 5792 5797 5799 5801 5803 5806 5807 5805 5804 5806 5807 5809 5811 5812 5813 5816 5818 5820 5821 5824 5826 5824 5825 5824 5825 5824 5824 5824 5823 5821 5818 5816 5814 5811
5762 5761 5763 5768 5773 5777 5776 5777 5782 5788 5790 5793 5797 5797 5799 5800 5801 5801 5801 5803 5803 5805 5806 5808 5813 5815 5817 5820 5821 5823 5820 5821 5822 5822 5822 5820 5819 5817 5815 5811 5809 5808 5805
5764 5762 5764 5767 5770 5770 5775 5780 5783 5784 5787 5788 5791 5791 5793 5794 5797 5797 5797 5798 5800 5801 5803 5807 5811 5812 5816 5817 5819 5820 5818 5818 5819 5818 5818 5817 5816 5813 5810 5807 5806 5804 5803
5760 5762 5763 5768 5770 5770 5772 5774 5776 5778 5782 5785 5786 5788 5789 5790 5790 5792 5794 5794 5795 5797 5800 5805 5808 5810 5812 5814 5816 5816 5816 5814 5814 5813 5812 5811 5810 5807 5806 5805 5803 5801 5798
5758 5758 5763 5766 5767 5766 5767 5767 5772 5774 5778 5778 5780 5783 5784 5784 5786 5788 5790 5791 5792 5795 5798 5804 5806 5808 5809 5811 5812 5812 5813 5811 5810 5809 5807 5804 5805 5804 5803 5801 5798 5795 5792
5754 5757 5760 5762 5762 5761 5763 5766 5767 5770 5773 5773 5773 5777 5778 5780 5781 5784 5786 5789 5791 5793 5799 5802 5803 5806 5808 5808 5808 5808 5807 5806 5805 5803 5802 5802 5800 5799 5796 5795 5792 5788 5785
5752 5754 5755 5757 5759 5761 5763 5764 5766 5767 5768 5770 5771 5773 5773 5775 5780 5781 5786 5788 5791 5795 5797 5799 5800 5803 5803 5804 5805 5803 5802 5799 5800 5799 5798 5795 5794 5792 5789 5787 5784 5780 5778
5746 5749 5750 5751 5753 5755 5758 5760 5761 5764 5764 5765 5766 5767 5770 5774 5779 5782 5786 5788 5792 5794 5795 5797 5798 5798 5799 5799 5800 5799 5796 5794 5792 5793 5792 5789 5786 5785 5782 5779 5776 5774 5770
5745 5744 5747 5750 5750 5751 5755 5758 5759 5761 5762 5765 5765 5767 5771 5773 5779 5782 5783 5788 5790 5792 5792 5793 5795 5794 5795 5794 5793 5792 5791 5789 5787 5785 5784 5784 5780 5777 5774 5771 5768 5764 5759
5750 5750 5750 5750 5752 5756 5757 5757 5759 5761 5762 5766 5766 5771 5773 5777 5780 5779 5781 5785 5787 5788 5790 5790 5790 5788 5788 5788 5786 5785 5785 5782 5780 5778 5775 5774 5772 5768 5766 5762 5757 5753 5749
5750 5751 5752 5753 5754 5753 5756 5759 5762 5760 5763 5765 5767 5772 5776 5777 5776 5778 5778 5781 5784 5785 5785 5785 5784 5782 5782 5782 5780 5779 5778 5775 5773 5771 5768 5765 5762 5759 5756 5752 5748 5743 5739
5752 5752 5752 5753 5753 5755 5758 5758 5759 5761 5763 5765 5768 5770 5772 5772 5773 5776 5777 5778 5780 5781 5782 5780 5778 5778 5778 5777 5775 5772 5769 5767 5764 5762 5760 5756 5753 5749 5744 5740 5737 5732 5727
5751 5751 5752 5753 5755 5757 5758 5759 5760 5763 5761 5763 5765 5766 5767 5768 5770 5772 5774 5775 5775 5778 5778 5778 5776 5773 5770 5770 5768 5765 5761 5760 5756 5752 5747 5743 5740 5736 5732 5729 5725 5719 5714
5753 5754 5755 5755 5757 5759 5760 5759 5759 5761 5761 5762 5762 5763 5764 5764 5766 5766 5769 5771 5771 5770 5769 5769 5769 5766 5762 5760 5759 5754 5753 5750 5746 5742 5737 5732 5729 5724 5720 5716 5712 5707 5702
5753 5754 5755 5756 5757 5757 5758 5759 5759 5760 5759 5760 5760 5760 5760 5761 5761 5763 5764 5765 5766 5765 5762 5760 5758 5756 5754 5750 5748 5747 5744 5740 5735 5731 5728 5722 5718 5715 5710 5705 5700 5693 5686
5753 5754 5755 5754 5754 5754 5754 5754 5754 5756 5757 5759 5759 5757 5756 5756 5756 5757 5758 5759 5757 5757 5755 5753 5750 5748 5745 5743 5740 5737 5734 5729 5724 5720 5716 5711 5706 5701 5697 5690 5684 5678 5671